TimeEDT,TemperatureF,Dew PointF,Humidity,Sea Level PressureIn,VisibilityMPH,Wind Direction,Wind SpeedMPH,Gust SpeedMPH,PrecipitationIn,Events,Conditions,WindDirDegrees,DateUTC
12:13 AM,30.2,26.6,86,29.69,1.8,NW,9.2,-,0.01,Snow,Light Snow,320,2013-03-16 04:13:00
12:21 AM,30.2,26.6,86,29.70,2.5,NW,9.2,19.6,0.01,Snow,Light Snow,310,2013-03-16 04:21:00
12:28 AM,30.2,24.8,80,29.70,9.0,NW,9.2,-,0.01,Snow,Light Snow,320,2013-03-16 04:28:00
12:52 AM,30.9,24.1,76,29.72,10.0,WNW,5.8,-,0.01,,Overcast,300,2013-03-16 04:52:00
1:52 AM,30.0,19.9,66,29.74,10.0,NNW,8.1,-,N/A,,Mostly Cloudy,330,2013-03-16 05:52:00
2:52 AM,28.9,19.0,67,29.75,10.0,NW,8.1,-,N/A,,Mostly Cloudy,320,2013-03-16 06:52:00
3:52 AM,26.1,16.0,66,29.76,10.0,Calm,Calm,-,N/A,,Clear,0,2013-03-16 07:52:00
4:52 AM,24.1,12.9,62,29.79,10.0,NW,4.6,-,N/A,,Clear,310,2013-03-16 08:52:00
5:52 AM,23.0,12.9,65,29.82,10.0,Calm,Calm,-,N/A,,Clear,0,2013-03-16 09:52:00
6:52 AM,24.1,14.0,65,29.83,10.0,NNW,6.9,-,N/A,,Clear,330,2013-03-16 10:52:00
7:52 AM,21.9,14.0,72,29.86,10.0,Calm,Calm,-,N/A,,Scattered Clouds,0,2013-03-16 11:52:00
8:52 AM,27.0,14.0,58,29.86,10.0,North,6.9,-,N/A,,Clear,350,2013-03-16 12:52:00
9:52 AM,27.0,14.0,58,29.86,10.0,NW,6.9,-,N/A,,Scattered Clouds,310,2013-03-16 13:52:00
10:52 AM,28.0,12.0,51,29.86,10.0,NNW,3.5,-,N/A,,Overcast,330,2013-03-16 14:52:00
11:52 AM,30.0,12.0,47,29.84,10.0,Variable,3.5,-,N/A,,Overcast,0,2013-03-16 15:52:00
12:52 PM,32.0,10.0,40,29.82,10.0,NNW,3.5,-,N/A,,Mostly Cloudy,330,2013-03-16 16:52:00
1:52 PM,34.0,9.0,35,29.80,10.0,Calm,Calm,-,N/A,,Overcast,0,2013-03-16 17:52:00
2:52 PM,34.0,7.0,32,29.80,10.0,Calm,Calm,-,N/A,,Overcast,0,2013-03-16 18:52:00
3:52 PM,35.1,8.1,33,29.79,10.0,WNW,4.6,-,N/A,,Overcast,290,2013-03-16 19:52:00
4:52 PM,36.0,10.0,34,29.77,10.0,ENE,3.5,-,N/A,,Clear,70,2013-03-16 20:52:00
6:52 PM,34.0,10.9,38,29.79,10.0,SW,4.6,-,N/A,,Overcast,230,2013-03-16 22:52:00
7:52 PM,33.1,12.9,43,29.81,10.0,Calm,Calm,-,N/A,,Overcast,0,2013-03-16 23:52:00
8:52 PM,33.1,12.0,42,29.83,10.0,West,6.9,-,N/A,,Overcast,260,2013-03-17 00:52:00
9:52 PM,30.0,12.0,47,29.85,10.0,NNW,4.6,-,N/A,,Mostly Cloudy,330,2013-03-17 01:52:00
10:52 PM,27.0,14.0,58,29.87,10.0,Calm,Calm,-,N/A,,Partly Cloudy,0,2013-03-17 02:52:00
11:52 PM,26.1,14.0,60,29.89,10.0,Calm,Calm,-,N/A,,Scattered Clouds,0,2013-03-17 03:52:00